軌道要素
Epoch 2015 Jan. 18.0 TT = JDT 2457040.5
T 2015 Jan. 14.60771 TT MPCW
q 1.3391781 (2000.0) P Q
n 0.15324833 Peri. 25.05816 +0.49733332 -0.86467790
a 3.4583760 Node 35.23948 +0.77391756 +0.40537630
e 0.6127726 Incl. 7.03341 +0.39206017 +0.29665162
P 6.43
From 862 observations 2001 Aug. 9-2015 Mar. 20, mean residual 0".7.
Nongravitational parameters A1 = +0.09, A2 = -0.0069.
|